{"data":{"norad_id":42806,"epoch":"2026-09-20T04:06:27.468000Z","epoch_age_seconds":43983,"freshness":"FRESH","line1":"1 42806U 17039D   26263.17115125  .00000071  00000+0  15075-4 0  9991","line2":"2 42806  86.4444 282.3849 0002287  86.3280 273.8182 14.43279630487968","mean_motion":14.4327963,"eccentricity":0.0002287,"inclination_deg":86.4444,"raan_deg":282.3849,"arg_perigee_deg":86.328,"mean_anomaly_deg":273.8182,"bstar":1.5075e-5,"rev_number":48796,"period_min":99.772765448093,"perigee_km":746.05341428228,"apogee_km":749.31276439114,"semimajor_km":7125.8200893367,"source":"CELESTRAK","updated_at":"2026-09-20T09:00:36.322501Z"}}